Time,TemperatureF,DewpointF,PressureIn,WindDirection,WindDirectionDegrees,WindSpeedMPH,WindSpeedGustMPH,Humidity,HourlyPrecipIn,Conditions,Clouds,dailyrainin,SoftwareType,DateUTC
2013-04-25 01:00:00,33.0,12.0,-100.00,WSW,251,7.0,9.0,40,-99.99,,,-99.99,,2013-04-25 07:00:00,
2013-04-25 01:32:00,33.0,12.0,-100.00,WSW,251,7.0,9.0,40,-99.99,,,-99.99,,2013-04-25 07:32:00,
2013-04-25 01:42:00,33.0,12.0,-100.00,WSW,251,7.0,9.0,40,-99.99,,,-99.99,,2013-04-25 07:42:00,
2013-04-25 01:52:00,33.0,12.0,-100.00,WSW,251,7.0,9.0,40,-99.99,,,-99.99,,2013-04-25 07:52:00,
2013-04-25 02:00:00,33.0,11.0,-100.00,SW,227,5.0,7.0,40,-99.99,,,-99.99,,2013-04-25 08:00:00,
2013-04-25 02:32:00,33.0,11.0,-100.00,SW,227,5.0,7.0,40,-99.99,,,-99.99,,2013-04-25 08:32:00,
2013-04-25 02:42:00,33.0,11.0,-100.00,SW,227,5.0,7.0,40,-99.99,,,-99.99,,2013-04-25 08:42:00,
2013-04-25 02:52:00,33.0,11.0,-100.00,SW,227,5.0,7.0,40,-99.99,,,-99.99,,2013-04-25 08:52:00,
2013-04-25 03:00:00,32.0,11.0,-100.00,SSW,210,5.0,7.0,39,-99.99,,,-99.99,,2013-04-25 09:00:00,
2013-04-25 03:33:00,32.0,11.0,-100.00,SSW,210,5.0,7.0,39,-99.99,,,-99.99,,2013-04-25 09:33:00,
2013-04-25 03:42:00,32.0,11.0,-100.00,SSW,210,5.0,7.0,39,-99.99,,,-99.99,,2013-04-25 09:42:00,
2013-04-25 03:52:00,32.0,11.0,-100.00,SSW,210,5.0,7.0,39,-99.99,,,-99.99,,2013-04-25 09:52:00,
2013-04-25 07:00:00,31.0,9.0,-100.00,SW,218,5.0,9.0,39,-99.99,,,-99.99,,2013-04-25 13:00:00,
2013-04-25 07:32:00,31.0,9.0,-100.00,SW,218,5.0,9.0,39,-99.99,,,-99.99,,2013-04-25 13:32:00,
2013-04-25 07:42:00,31.0,9.0,-100.00,SW,218,5.0,9.0,39,-99.99,,,-99.99,,2013-04-25 13:42:00,
2013-04-25 07:52:00,31.0,9.0,-100.00,SW,218,5.0,9.0,39,-99.99,,,-99.99,,2013-04-25 13:52:00,
2013-04-25 08:00:00,31.0,9.0,-100.00,WSW,240,5.0,8.0,39,-99.99,,,-99.99,,2013-04-25 14:00:00,
2013-04-25 08:32:00,31.0,9.0,-100.00,WSW,240,5.0,8.0,39,-99.99,,,-99.99,,2013-04-25 14:32:00,
2013-04-25 08:42:00,31.0,9.0,-100.00,WSW,240,5.0,8.0,39,-99.99,,,-99.99,,2013-04-25 14:42:00,
2013-04-25 08:52:00,31.0,9.0,-100.00,WSW,240,5.0,8.0,39,-99.99,,,-99.99,,2013-04-25 14:52:00,
2013-04-25 11:00:00,39.0,18.0,-100.00,SW,230,6.0,9.0,43,-99.99,,,-99.99,,2013-04-25 17:00:00,
2013-04-25 11:32:00,39.0,18.0,-100.00,SW,230,6.0,9.0,43,-99.99,,,-99.99,,2013-04-25 17:32:00,
2013-04-25 11:42:00,39.0,18.0,-100.00,SW,230,6.0,9.0,43,-99.99,,,-99.99,,2013-04-25 17:42:00,
2013-04-25 11:53:00,39.0,18.0,-100.00,SW,230,6.0,9.0,43,-99.99,,,-99.99,,2013-04-25 17:53:00,
2013-04-25 23:00:00,40.0,20.0,-100.00,NNW,327,7.0,12.0,43,-99.99,,,-99.99,,2013-04-26 05:00:00,
2013-04-25 23:32:00,40.0,20.0,-100.00,NNW,327,7.0,12.0,43,-99.99,,,-99.99,,2013-04-26 05:32:00,
2013-04-25 23:42:00,40.0,20.0,-100.00,NNW,327,7.0,12.0,43,-99.99,,,-99.99,,2013-04-26 05:42:00,
2013-04-25 23:52:00,40.0,20.0,-100.00,NNW,327,7.0,12.0,43,-99.99,,,-99.99,,2013-04-26 05:52:00,